Flag for Micronesia Weather past 2 weeks in Colonia, Yap, Micronesia

Now
83 °F

Mostly cloudy.


Feels Like: 92 °F
Forecast: 79 / 85 °F
Wind: 6 mph from North

Location: Yap Island

Current Time: Sep 23, 2014 at 9:39:17 PM

Latest Report: Sep 23, 2014 at 8:50 PM


Visibility: 12 mi

Pressure: 29.80 "Hg

Humidity: 87%

Dew point: 78 °F

Location of ColoniaLocation

Historic Weather in Colonia — Graph

°F

Colonia temperature yesterday

Maximum temperature yesterday: 89 °F (at 2:51 PM)
Minimum temperature yesterday: 79 °F (at 6:52 AM)
Average temperature yesterday: 84 °F

Past Weeks' High & Low Weather Summary

 TemperatureHumidityPressure
High89 °F (Sep 9, 2:50 PM)96% (Sep 12, 5:50 AM)29.93 "Hg (Sep 12, 5:50 AM)
Low76 °F (Sep 11, 6:50 AM)70% (Sep 9, 12:50 PM)29.65 "Hg (Sep 16, 3:50 PM)
Average82 °F84%29.80 "Hg
* Reported Sep 8 7:50 PM — Sep 23 7:50 PM, Colonia, Weather by CustomWeather, © 2014

Note: Actual official high and low records may vary slightly from our data, if they occured in-between our weather recording intervals... More about our weather records

Advertising

Colonia weather history for previous 24 hours

 ConditionsComfort  
Time TempWeatherWind HumidityBarometerVisibility
7:50 PM
Sep 23
82 °FPartly cloudy.8 mph89%29.80 "Hg12 mi
6:53 PM82 °FBroken clouds.8 mph88%29.80 "Hg12 mi
5:50 PM85 °FPartly sunny.10 mph79%29.78 "Hg12 mi
4:52 PM85 °FPartly sunny.10 mph76%29.77 "Hg12 mi
3:50 PM88 °FPartly sunny.9 mph71%29.77 "Hg12 mi
2:51 PM88 °FPartly sunny.12 mph71%29.78 "Hg12 mi
1:51 PM88 °FPartly sunny.12 mph72%29.79 "Hg12 mi
12:52 PM88 °FPartly sunny.10 mph71%29.80 "Hg12 mi
11:53 AM87 °FPartly sunny.12 mph75%29.83 "Hg12 mi
10:50 AM86 °FPartly sunny.10 mph77%29.83 "Hg12 mi
9:50 AM85 °FPartly sunny.9 mph77%29.84 "Hg12 mi
8:50 AM85 °FPartly sunny.9 mph79%29.82 "Hg12 mi
7:53 AM82 °FBroken clouds.6 mph86%29.83 "Hg12 mi
6:52 AM82 °FPartly cloudy.2 mph87%29.80 "Hg12 mi
5:53 AM82 °FPartly cloudy.5 mph83%29.79 "Hg12 mi
4:55 AM82 °FPartly cloudy.3 mph84%29.78 "Hg12 mi
3:50 AM82 °FPartly cloudy.3 mph87%29.78 "Hg12 mi
2:53 AM82 °FPartly cloudy.3 mph89%29.78 "Hg12 mi
1:50 AM82 °FPartly cloudy.5 mph89%29.79 "Hg12 mi
12:53 AM82 °FPartly cloudy.5 mph89%29.80 "Hg12 mi
11:53 PM
Sep 22
83 °FPartly cloudy.5 mph86%29.83 "Hg12 mi
10:52 PM83 °FPartly cloudy.5 mph85%29.85 "Hg12 mi
9:50 PM82 °FPartly cloudy.5 mph86%29.84 "Hg12 mi
Weather by CustomWeather, © 2014

See weather overviewHow to use our weather pages